Location: American Medical Response
(33.3472°N, 96.5511°W)
Time: 10:30:10
(UTC+00:00)

Cosmos 1805 Rocket - Pass Details

Date: 10 July 2022
Orbit: 605 x 629 km, 82.5° (Epoch: 09 August)

Event Time Altitude Azimuth Distance (km) Brightness Sun altitude
Exits shadow 09:06:15 66° 288° (WNW) 674 3.5 -23.3°
Drops below altitude 10° 09:10:29 10° 0° (N) 1,980 6.8 -22.8°
Sets 09:12:44 0° 3° (N) 2,884 7.8 -22.5°
